TIME,DELAY(SENSOR),PRES,OXYGEN,RAWTEMP,T(OPTODE),TCPHASE,FLUOR,BETA(BETA700),BETA(BETA412),BETA(BETA440),CDOM,C(CSC),ED(ED412.20),ED(ED444.00),ED(ED489.60),ED(ED554.30),LU(LU412.10),LU(LU443.90),LU(LU489.70),LU(LU554.70),COMP,TILTX,TILTY,CHECK
1362023370,5808,877.8800048828125000,33.5294189453125000,560.3203735351562000,4.4759669303894040,56.5218811035156250,56,99,100,78,82,15530,0,0,0,0,2147120740,2147772909,2147571382,2147565723,1738,2,13,21477
1362026966,5808,941.9099731445312000,39.3050613403320300,568.0625000000000000,4.2357540130615230,55.7016296386718750,56,97,101,78,82,15528,0,0,0,0,2147124379,2147771931,2147572781,2147566226,121,2,13,32957
1362030566,5809,952.8599853515625000,40.6716804504394500,569.8125000000000000,4.1813869476318360,55.5162010192871100,55,97,100,77,82,15518,0,0,0,0,2147122450,2147767030,2147573138,2147564946,3265,2,13,30652
1362034166,5810,985.6099853515625000,42.7526588439941400,571.7426147460938000,4.1213970184326170,55.2313308715820300,54,98,99,77,83,15526,0,0,0,0,2147124352,2147768393,2147572443,2147563291,3256,2,13,20617
1362037766,5813,992.4000244140625000,42.6496009826660160,571.7371826171875000,4.1215629577636720,55.2405509948730500,55,99,100,77,82,15523,0,0,0,0,2147124918,2147770624,2147573211,2147563785,141,2,13,5357
1362041366,5810,986.2999877929688000,42.9444618225097660,572.4060058593750000,4.1007690429687500,55.2066497802734400,55,98,99,78,82,15525,0,0,0,0,2147122825,2147772489,2147575113,2147564982,323,2,13,52316
1362044966,5811,995.6599731445312000,42.8791618347168000,572.2296752929688000,4.1062507629394530,55.2181015014648440,55,97,99,78,83,15523,0,0,0,0,2147125229,2147773394,2147571840,2147565952,235,2,13,52438
1362048566,5808,994.9099731445312000,42.4768600463867200,572.1141967773438000,4.1098418235778810,55.2730216979980500,55,101,100,78,82,15525,0,0,0,0,2147121298,2147769270,2147576384,2147567341,246,3,13,56690
1362052166,5811,1006.4400024414062000,41.5352287292480500,571.0375976562500000,4.1433119773864750,55.3956108093261700,54,98,101,78,82,15522,0,0,0,0,2147124772,2147769901,2147577883,2147566070,2912,2,13,63757
1362055766,5811,1002.9400024414062000,42.2806205749511700,571.5711059570312000,4.1267280578613280,55.2931098937988300,55,97,101,77,82,15521,0,0,0,0,2147124022,2147773385,2147571885,2147566756,3401,2,13,35498
1362059366,5810,1003.5599975585938000,42.0973281860351560,571.7117919921875000,4.1223549842834470,55.3256111145019500,55,97,99,77,82,15521,0,0,0,0,2147124269,2147771154,2147574738,2147566729,174,2,13,5358
1362062966,5809,998.7500000000000000,42.2453689575195300,571.9367065429688000,4.1153597831726070,55.3026084899902340,55,100,99,78,82,15519,0,0,0,0,2147123117,2147768576,2147576210,2147564708,223,2,13,19390
1362066566,5810,1002.1199951171875000,42.5067214965820300,572.1060791015625000,4.1100921630859375,55.2704505920410160,55,100,100,79,82,15522,0,0,0,0,2147124141,2147772498,2147574811,2147566674,280,2,13,40218
1362070166,5809,1007.1099853515625000,42.2619400024414060,571.9365844726562000,4.1153640747070310,55.3011703491210940,55,98,100,78,81,15523,0,0,0,0,2147123446,2147767899,2147575158,2147567387,70,3,13,48600
1362073766,5810,1002.9199829101562000,42.0222702026367200,572.2985229492188000,4.1041111946105960,55.3429183959960940,54,97,99,78,81,15521,0,0,0,0,2147123721,2147763693,2147574134,2147571885,3543,2,13,44569
1362077366,5811,1000.5800170898438000,42.3304901123046900,572.2435302734375000,4.1058220863342285,55.2986793518066400,55,99,99,76,82,15521,0,0,0,0,2147121426,2147773348,2147573430,2147569188,36,2,13,17205
1362080966,5810,1012.0599975585938000,42.5411796569824200,571.7050781250000000,4.1225619316101070,55.2620201110839840,54,98,101,78,81,15519,0,0,0,0,2147123236,2147769581,2147574637,2147566784,37,2,13,1934
1362084566,5810,1005.3400268554688000,42.3596000671386700,571.6818847656250000,4.1232810020446780,55.2841300964355500,54,97,100,78,81,15519,0,0,0,0,2147123419,2147772260,2147574409,2147565714,76,2,13,65525
1362088166,5810,995.9699707031250000,42.2307281494140600,573.1871948242188000,4.0764732360839840,55.3234405517578100,55,99,101,78,81,15519,0,0,0,0,2147122614,2147771081,2147571584,2147564434,186,2,13,51190
1362091766,5810,997.9799804687500000,42.4661598205566400,573.4238891601562000,4.0691108703613280,55.2917900085449200,55,99,99,78,82,15515,0,0,0,0,2147122020,2147771620,2147572992,2147568045,270,2,13,34598
1362095366,5812,1002.8200073242188000,42.5971183776855500,572.6348876953125000,4.0936489105224610,55.2573890686035160,54,97,101,78,82,15516,0,0,0,0,2147125321,2147773165,2147572059,2147565046,3486,2,13,64153
1362098966,5809,997.8400268554688000,42.3818092346191400,573.2152099609375000,4.0756020545959470,55.2960395812988300,55,98,99,78,81,15507,0,0,0,0,2147120603,2147773558,2147578825,2147569664,698,2,13,6940
1362102566,5810,999.0200195312500000,43.2622795104980500,573.7623291015625000,4.0585842132568360,55.1779785156250000,54,100,100,78,81,15517,0,0,0,0,2147118784,2147770020,2147577910,2147569398,3518,2,13,34633
1362106166,5810,991.8200073242188000,42.7158317565918000,574.5750732421875000,4.0332980155944820,55.2677688598632800,54,98,100,78,82,15517,0,0,0,0,2147120484,2147778240,2147575734,2147565952,2703,2,13,63621
1362109766,5811,997.3200073242188000,42.9871597290039060,574.2714843750000000,4.0427460670471190,55.2246208190918000,56,97,99,77,82,15512,0,0,0,0,2147119899,2147769691,2147577280,2147565650,3546,2,13,28651
1362113366,5810,1007.3699951171875000,42.9977416992187500,573.4702758789062000,4.0676670074462890,55.2143211364746100,56,99,100,77,81,15517,0,0,0,0,2147122084,2147768246,2147575067,2147566902,352,2,13,15586
1362116966,5811,1006.9600219726562000,42.6136093139648440,573.1522827148438000,4.0775599479675290,55.2654609680175800,55,97,100,77,82,15515,0,0,0,0,2147122139,2147770761,2147576795,2147567049,94,2,13,34809
1362120566,5810,1005.5000000000000000,42.4358406066894500,573.2346801757812000,4.0749969482421875,55.2896690368652340,54,97,99,77,82,15515,0,0,0,0,2147123840,2147770806,2147574710,2147567588,205,2,13,52822
1362124166,5811,1007.7999877929688000,42.0572891235351560,572.6909179687500000,4.0919079780578610,55.3435707092285160,54,97,100,79,81,15514,0,0,0,0,2147123382,2147770285,2147571794,2147567872,160,2,13,46360
1362127766,5811,1003.4099731445312000,42.0744781494140600,573.2691040039062000,4.0739269256591800,55.3480491638183600,54,97,100,77,81,15510,0,0,0,0,2147123821,2147772900,2147574006,2147565257,528,2,13,9639
1362131366,5808,1010.7999877929688000,42.6986808776855500,573.3051757812500000,4.0728030204772950,55.2568817138671900,54,98,101,77,81,15495,0,0,0,0,2147120393,2147775323,2147575085,2147568731,602,3,13,7335
1362134966,5809,1007.8699951171875000,42.4734497070312500,572.3925781250000000,4.1011829376220700,55.2721710205078100,55,98,99,78,83,15503,0,0,0,0,2147122468,2147770093,2147576173,2147565385,3595,2,13,40353
1362138566,5809,1003.1799926757812000,41.9996299743652340,572.7255249023438000,4.0908341407775880,55.3480796813964840,55,103,99,78,82,15502,0,0,0,0,2147120813,2147769344,2147571410,2147566253,3274,2,13,24743
1362142166,5811,1003.2000122070312000,42.4179687500000000,572.9937133789062000,4.0824928283691410,55.2875709533691400,55,100,100,77,81,15503,0,0,0,0,2147121389,2147769490,2147571858,2147564333,70,2,13,42385
1362145766,5809,1010.0900268554688000,42.8013191223144500,572.5787963867188000,4.0953960418701170,55.2288017272949200,54,100,100,77,81,15501,0,0,0,0,2147120411,2147773376,2147572854,2147570029,3512,2,13,44946
1362149366,5809,1015.2999877929688000,42.6339912414550800,572.1243286132812000,4.1095290184021000,55.2480392456054700,55,98,101,78,81,15501,0,0,0,0,2147124964,2147768603,2147571922,2147568109,122,2,13,1625
1362152966,5807,1006.9699707031250000,42.6820297241210940,572.3181762695312000,4.1034998893737790,55.2427101135253900,55,98,101,78,82,15502,0,0,0,0,2147123465,2147775122,2147573668,2147564982,447,2,13,34846
1362156566,5811,1012.5100097656250000,42.5466995239257800,572.4010009765625000,4.1009240150451660,55.2668991088867200,55,98,101,78,81,15501,0,0,0,0,2147122358,2147767899,2147574262,2147572297,3474,2,13,33075
1362160166,5813,1008.7899780273438000,42.7637901306152340,572.6372070312500000,4.0935778617858890,55.2393913269043000,54,97,99,78,81,15499,0,0,0,0,2147123209,2147772973,2147573266,2147572470,17,2,13,62361
1362163766,5812,1009.4099731445312000,42.4615707397460940,572.9437866210938000,4.0840420722961430,55.2834510803222660,55,98,100,80,82,15473,0,0,0,0,2147120466,2147770678,2147575908,2147567232,3238,2,13,64826
1362167366,5811,1009.1799926757812000,42.3828506469726560,572.7664794921875000,4.0895581245422360,55.2918701171875000,55,98,100,78,82,15465,0,0,0,0,2147121810,2147773010,2147570953,2147568850,180,2,13,12741
1362168656,5810,1018.5599975585938000,42.8700790405273440,572.3660888671875000,4.1020069122314450,55.2174110412597660,55,97,100,78,83,15462,0,0,0,0,2147122404,2147775396,2147572873,2147568777,19,2,13,3222
